Tracking 19246 objects as of 21-Aug-2018
HD Live streaming from Space Station
objects crossing your sky now

COSMOS 614

Track COSMOS 614 now!
10-day predictions
COSMOS 614 is classified as:


NORAD ID: 6965
Int'l Code: 1973-098A
Perigee: 752.5 km
Apogee: 785.7 km
Inclination: 74.1 °
Period: 100.1 minutes
Semi major axis: 7140 km
RCS: 2.1152 m2 (large)
Launch date: December 4, 1973
Source: Commonwealth of Independent States (former USSR) (CIS)
Launch site: PLESETSK MISSILE AND SPACE COMPLEX (PKMTR)
aabbcc
Your satellite tracking list
Your tracking list is empty




NASA's NSSDC Master Catalog

Two Line Element Set (TLE):
1 06965U 73098A   18232.64893352  .00000022  00000-0  15552-4 0  9995
2 06965  74.0553 262.8870 0023270 190.5934 169.4733 14.38960871343516
Source of the keplerian elements: AFSPC